OPS 4682 DEB, 29059

Orbit data source: Space-Track

OPS 4682 DEB, 29059 is space debris in LEO originally from a launch on Sat, 03 Apr 1965 UTC launched from the Air Force Western Test Range (AFWTR). Debris objects in space refer to the collection of defunct objects orbiting the Earth. Examples of debris include non-operational satellites, rocket bodies, and fragments generated from explosions, collisions, or faulty payload assembly.

Loading next visibility...
Identifier
29059, 1965-027BJ
Orbit
LEO
Country
Flag of USUS
Related business
Manufacturer
Unknown
Mission
Spacecraft
Bus & Motor
Unknown
Mass
Unknown
Launch date (UTC)
1965-04-03 (61 years ago)
Launch vehicle
Unknown
Launch site
Air Force Western Test Range (AFWTR)
Object type
Payload
Rocket body
Debris
Shape & HBR
Unknown shape, 0.1 m
Radar Cross Section
Small (<0.1 m²)

Expand to show TLE details & history
Last TLE update: 20 hours ago

TLE from 20 hours ago
0 OPS 4682 DEB
1 29059U 65027BJ  26065.30664683  .00000384  00000-0  13530-2 0  9999
2 29059  90.2430   4.0398 0030881 133.1557  23.3779 12.94293933142300
Epoch: 2026-03-06T07:21Z
TLE epoch observation values (Epoch: 2026-03-06T07:21:34.286Z)
Latitude
23.34278°
Longitude
-90.29325°
Altitude
1,265.628 km
Speed
7.235 km/s
True Right ascension
12h 16m 34s
True Declination
23° 13' 34"
Sunlit
Object was in full shadow at epoch
Visualization orbit readout
Latitude
Unknown
Longitude
Unknown
Altitude
Unknown
Speed
Unknown
Apparent Right ascension
Unknown
Apparent Declination
Unknown
Sunlit
N/A
Visualization observer readout
Local Sidereal Time
07:20:39
Azimuth
Unknown
Elevation
Unknown
Doppler factor
Unknown
Orbital elements
Apogee altitude
1,305.315 km
Perigee altitude
1,258.007 km
Semi-major axis
7,659.798 km
Eccentricity
0.00309
Inclination
90.243°
RAAN
4.0398°
Arg. of periapsis
133.1557°
True anomaly
23.51881°
Mean anomaly
23.3779°
Eccentric anomaly
23.44831°
Mean motion
3.23756 °/min
Orbital period
111.2 mins
BSTAR
0.001353
Loading maneuver chart data...
Computing Atmospheric mass density...
Loading historical data...
Loading historical data...
Loading historical data...
Loading historical data...
Loading historical data...
Loading historical data...
Loading historical data...

Documentation

Showing up to 5 results
|